OE3UKW Weather Reports


time (UTC)temp
C
wind
direction
speed
KPH
gust
KPH
rain 1hr
cm
rain 24hr
cm
rain mn
cm
humidity
%
barometer
mb
20260507212112 13 223 27.4 30.6 0.00 0.00 0.00 66 1015.6
20260507211112 13 219 29.0 35.4 0.00 0.00 0.00 67 1015.6
20260507210112 13 224 22.5 32.2 0.00 0.00 0.00 68 1015.4
20260507205112 13 221 20.9 27.4 0.00 0.00 0.00 68 1015.5
20260507204112 13 241 20.9 30.6 0.00 0.00 0.00 67 1015.6
20260507203111 13 213 19.3 29.0 0.00 0.00 0.00 67 1015.4
20260507202111 13 226 22.5 25.7 0.00 0.00 0.00 67 1015.4
20260507201111 13 216 12.9 22.5 0.00 0.00 0.00 66 1015.3
20260507200112 14 231 14.5 17.7 0.00 0.00 0.00 66 1015.3
20260507195111 14 236 11.3 19.3 0.00 0.00 0.00 65 1015.1
20260507194112 14 210 16.1 22.5 0.00 0.00 0.00 64 1014.9
20260507193111 14 219 14.5 24.1 0.00 0.00 0.00 64 1014.9
20260507192111 14 235 17.7 22.5 0.00 0.00 0.00 63 1014.7
20260507191112 14 193 17.7 22.5 0.00 0.00 0.00 63 1014.6
20260507190111 14 234 14.5 19.3 0.00 0.00 0.00 62 1014.5
20260507185111 14 235 14.5 22.5 0.00 0.00 0.00 62 1014.4
20260507184111 15 207 19.3 27.4 0.00 0.00 0.00 62 1014.2
20260507183111 15 233 17.7 24.1 0.00 0.00 0.00 61 1014.1
20260507182111 15 220 16.1 22.5 0.00 0.00 0.00 60 1014.1
20260507181111 15 199 12.9 20.9 0.00 0.00 0.00 58 1014.1
20260507180111 16 229 14.5 20.9 0.00 0.00 0.00 55 1013.8
20260507175111 16 221 20.9 24.1 0.00 0.00 0.00 51 1013.9
20260507174111 17 216 14.5 22.5 0.00 0.00 0.00 48 1013.9
20260507173111 17 213 16.1 20.9 0.00 0.00 0.00 45 1013.8
20260507172111 17 215 14.5 22.5 0.00 0.00 0.00 43 1013.7
20260507171111 17 222 12.9 24.1 0.00 0.00 0.00 42 1013.5
20260507170111 18 233 19.3 24.1 0.00 0.00 0.00 41 1013.4
20260507165111 18 211 19.3 27.4 0.00 0.00 0.00 39 1013.2
20260507164111 19 217 19.3 25.7 0.00 0.00 0.00 38 1013.1
20260507163111 20 218 16.1 20.9 0.00 0.00 0.00 35 1013.0
20260507162111 20 201 14.5 20.9 0.00 0.00 0.00 34 1012.8
20260507161111 20 184 16.1 19.3 0.00 0.00 0.00 34 1012.8
20260507160111 21 175 14.5 17.7 0.00 0.00 0.00 33 1012.7
20260507155111 21 184 9.7 16.1 0.00 0.00 0.00 30 1012.8
20260507154111 21 185 11.3 16.1 0.00 0.00 0.00 30 1012.7
20260507153111 21 188 12.9 14.5 0.00 0.00 0.00 29 1012.8
20260507152111 21 165 12.9 20.9 0.00 0.00 0.00 29 1012.7
20260507151111 21 192 12.9 17.7 0.00 0.00 0.00 29 1012.7
20260507150111 22 187 16.1 22.5 0.00 0.00 0.00 28 1012.7
20260507145111 22 175 6.4 16.1 0.00 0.00 0.00 28 1012.7
20260507144111 23 201 6.4 12.9 0.00 0.00 0.00 26 1013.0
20260507143111 23 213 14.5 17.7 0.00 0.00 0.00 26 1012.9
20260507142111 23 173 12.9 16.1 0.00 0.00 0.00 26 1012.9
20260507141111 23 132 6.4 19.3 0.00 0.00 0.00 28 1013.0
20260507140111 22 198 1.6 12.9 0.00 0.00 0.00 31 1013.0
20260507135111 22 231 11.3 16.1 0.00 0.00 0.00 28 1012.9
20260507134111 22 232 16.1 19.3 0.00 0.00 0.00 30 1012.9
20260507133111 22 236 14.5 24.1 0.00 0.00 0.00 29 1013.2
20260507132111 22 249 8.0 14.5 0.00 0.00 0.00 31 1013.1
20260507131110 22 270 8.0 12.9 0.00 0.00 0.00 31 1013.1
20260507130111 22 294 8.0 17.7 0.00 0.00 0.00 30 1013.2
20260507125111 22 284 4.8 16.1 0.00 0.00 0.00 34 1013.2
20260507124110 22 333 8.0 16.1 0.00 0.00 0.00 31 1013.3
20260507123111 22 303 12.9 20.9 0.00 0.00 0.00 33 1013.4
20260507122111 22 245 4.8 14.5 0.00 0.00 0.00 33 1013.5
20260507121110 22 313 6.4 12.9 0.00 0.00 0.00 34 1013.6
20260507120111 21 225 12.9 19.3 0.00 0.00 0.00 36 1013.6
20260507115110 21 336 6.4 14.5 0.00 0.00 0.00 35 1013.6
20260507114110 21 299 14.5 17.7 0.00 0.00 0.00 34 1013.7
20260507113111 21 360 9.7 16.1 0.00 0.00 0.00 37 1014.0
20260507112111 20 263 12.9 19.3 0.00 0.00 0.00 36 1014.0
20260507111110 20 250 11.3 16.1 0.00 0.00 0.00 40 1014.0
20260507110110 19 229 6.4 22.5 0.00 0.00 0.00 40 1014.2
20260507105110 19 235 8.0 19.3 0.00 0.00 0.00 41 1014.3
20260507104110 19 232 17.7 20.9 0.00 0.00 0.00 42 1014.2
20260507103110 19 224 11.3 22.5 0.00 0.00 0.00 41 1014.3
20260507102110 19 269 12.9 20.9 0.00 0.00 0.00 42 1014.3
20260507101110 18 230 12.9 20.9 0.00 0.00 0.00 44 1014.2
20260507100110 18 234 16.1 20.9 0.00 0.00 0.00 45 1014.2
20260507095110 18 233 14.5 20.9 0.00 0.00 0.00 45 1014.2
20260507094111 17 235 16.1 25.7 0.00 0.00 0.00 45 1014.2
20260507093110 17 268 12.9 20.9 0.00 0.00 0.00 46 1014.1
20260507092110 17 313 14.5 19.3 0.00 0.00 0.00 46 1014.0
20260507091110 17 241 19.3 22.5 0.00 0.00 0.00 44 1013.9
20260507090110 17 225 14.5 20.9 0.00 0.00 0.00 45 1013.8
20260507085110 18 253 12.9 20.9 0.00 0.00 0.00 45 1013.7
20260507084110 17 257 12.9 24.1 0.00 0.00 0.00 48 1013.4
20260507083110 17 261 12.9 19.3 0.00 0.00 0.00 49 1013.4
20260507082110 16 285 8.0 17.7 0.00 0.00 0.00 49 1013.4
20260507081110 16 233 11.3 19.3 0.00 0.00 0.00 49 1013.4
20260507080110 16 286 14.5 24.1 0.00 0.00 0.00 47 1013.2
20260507075110 16 205 16.1 24.1 0.00 0.00 0.00 47 1013.1
20260507074110 16 287 19.3 25.7 0.00 0.00 0.00 48 1012.9
20260507073110 16 286 8.0 17.7 0.00 0.00 0.00 49 1012.7
20260507072110 16 273 14.5 22.5 0.00 0.00 0.00 49 1012.8
20260507071110 16 246 16.1 25.7 0.00 0.00 0.00 50 1012.6
20260507070110 16 254 11.3 29.0 0.00 0.00 0.00 49 1012.7
20260507065110 16 260 12.9 22.5 0.00 0.00 0.00 49 1012.6
20260507064110 16 261 22.5 29.0 0.00 0.00 0.00 49 1012.5
20260507063110 16 268 11.3 24.1 0.00 0.00 0.00 49 1012.5
20260507062110 16 265 16.1 32.2 0.00 0.00 0.00 50 1012.4
20260507061110 15 265 9.7 29.0 0.00 0.00 0.00 51 1012.3
20260507060110 15 255 20.9 27.4 0.00 0.00 0.00 52 1012.3
20260507055110 15 242 16.1 25.7 0.00 0.00 0.00 52 1012.2
20260507054110 15 240 19.3 24.1 0.00 0.00 0.00 54 1012.2
20260507053110 15 265 11.3 20.9 0.00 0.00 0.00 54 1012.2
20260507052110 15 235 12.9 25.7 0.00 0.00 0.00 54 1012.0
20260507051110 14 252 20.9 25.7 0.00 0.00 0.00 55 1012.0
20260507050110 14 257 19.3 29.0 0.00 0.00 0.00 55 1011.5
20260507045110 14 236 17.7 25.7 0.00 0.00 0.00 56 1011.4
20260507044110 14 237 24.1 35.4 0.00 0.00 0.00 56 1011.3
20260507043109 14 261 22.5 33.8 0.00 0.00 0.00 56 1011.2
20260507042109 14 258 22.5 33.8 0.00 0.00 0.00 56 1011.1
20260507041109 14 275 17.7 33.8 0.00 0.00 0.00 56 1010.9
20260507040109 14 251 25.7 32.2 0.00 0.00 0.00 55 1010.8
20260507035110 14 244 19.3 33.8 0.00 0.00 0.00 55 1010.7
20260507034109 14 248 22.5 40.2 0.00 0.00 0.00 55 1010.7
20260507033109 14 244 20.9 41.8 0.00 0.00 0.00 55 1010.6
20260507032109 14 245 25.7 38.6 0.00 0.00 0.00 55 1010.7
20260507031109 14 277 24.1 41.8 0.00 0.00 0.00 55 1010.3
20260507030109 14 271 30.6 40.2 0.00 0.00 0.00 56 1010.3
20260507025109 14 241 24.1 29.0 0.00 0.00 0.00 57 1010.3
20260507024109 14 234 22.5 35.4 0.00 0.00 0.00 57 1010.3
20260507023109 14 257 17.7 30.6 0.00 0.00 0.00 58 1010.4
20260507022110 14 311 19.3 40.2 0.00 0.00 0.00 58 1010.1
20260507021109 14 254 22.5 37.0 0.00 0.00 0.00 58 1010.1
20260507020110 15 232 24.1 33.8 0.00 0.00 0.00 58 1010.2
20260507015109 15 244 25.7 32.2 0.00 0.00 0.00 57 1010.0
20260507014109 15 264 22.5 33.8 0.00 0.00 0.00 58 1009.9
20260507013124 15 244 16.1 27.4 0.00 0.00 0.00 57 1010.0
20260507012109 15 257 24.1 33.8 0.00 0.00 0.00 57 1010.0
20260507011109 15 232 24.1 35.4 0.00 0.00 0.00 57 1010.0
20260507010109 15 248 25.7 41.8 0.00 0.00 0.00 57 1009.8
20260507005110 15 360 29.0 37.0 0.00 0.00 0.00 57 1009.4
20260507004110 15 242 20.9 32.2 0.00 0.00 0.00 58 1009.4
20260507003110 15 240 20.9 30.6 0.00 0.00 0.00 58 1009.4
20260507002110 15 247 24.1 37.0 0.00 0.00 0.00 58 1009.3
20260507001110 16 263 27.4 40.2 0.00 0.00 0.00 58 1009.2
20260507000110 16 252 19.3 41.8 0.00 0.00 0.00 58 1009.2
20260506235110 16 259 24.1 33.8 0.00 0.00 0.00 59 1009.2
20260506234110 16 246 24.1 33.8 0.00 0.00 0.00 58 1009.3
20260506233110 15 244 29.0 35.4 0.00 0.00 0.00 58 1009.2
20260506232110 15 229 17.7 30.6 0.00 0.00 0.00 58 1008.9
20260506231110 15 225 14.5 17.7 0.00 0.00 0.00 58 1008.9
20260506230110 15 218 3.2 8.0 0.00 0.00 0.00 58 1008.8
20260506225110 15 220 6.4 11.3 0.00 0.00 0.00 58 1008.7
20260506224110 15 204 11.3 14.5 0.00 0.00 0.00 57 1008.6
20260506223110 16 195 8.0 14.5 0.00 0.00 0.00 57 1008.4
20260506222110 16 180 11.3 14.5 0.00 0.00 0.00 56 1007.9
20260506221110 16 171 12.9 17.7 0.00 0.00 0.00 55 1007.9
20260506220110 16 184 14.5 24.1 0.00 0.00 0.00 55 1007.9
20260506215113 17 173 16.1 19.3 0.00 0.00 0.00 54 1007.8
20260506214113 17 174 19.3 30.6 0.00 0.00 0.00 54 1007.6
20260506213113 17 153 20.9 33.8 0.00 0.00 0.00 53 1007.5